Location: Proctor
(47.8934°N, 114.3048°W)
Time: 01:28:30
(UTC+00:00)

POLYITAN 1 - Pass Details

Date: 05 July 2022
Orbit: 586 x 605 km, 98.0° (Epoch: 15 August)

Event Time Altitude Azimuth Distance (km) Brightness Sun altitude
Rises 08:24:56 0° 28° (NNE) 2,864 ? -18.7°
Reaches altitude 10° 08:27:42 10° 47° (NE) 1,958 ? -18.6°
Maximum altitude 08:30:42 19° 92° (E) 1,475 ? -18.5°
Enters shadow 08:32:52 13° 127° (SE) 1,741 ? -18.4°
